Regional Weather Roundup
Issued by NWS

Home | Current Version | Previous Version | Text Only | Print | Product List | Glossary On
Versions: 1 2 3 4 5 6 7 8 9 10 11 12 13 14 15 16 17 18 19 20 21 22 23 24 25 26 27 28 29 30 31 32 33 34 35 36 37 38 39 40 41 42 43 44 45 46 47 48 49 50
000
ASCA44 KEWX 280920
RWRMX

LATIN AMERICA AND CARIBBEAN REGIONAL WEATHER ROUNDUP
NATIONAL WEATHER SERVICE AUSTIN/SAN ANTONIO TX
300 AM CST SUN DEC 28 2014

NOTE: "FAIR" INDICATED FEW OR NO CLOUDS BELOW 12,000 FEET WITH NO
SIGNIFICANT WEATHER AND/OR OBSTRUCTIONS TO VISIBILITY.

BAJA CALIFORNIA

CITY           SKY/WX    TMP DP  RH WIND       PRES   REMARKS
TIJUANA        CLEAR     46  10  23 CALM      30.31F

NORTHWESTERN MEXICO

CITY           SKY/WX    TMP DP  RH WIND       PRES   REMARKS
DURANGO        CLEAR     39  37  93 CALM      30.19

NORTHEASTERN MEXICO

CITY           SKY/WX    TMP DP  RH WIND       PRES   REMARKS
MONTERREY      LGT RAIN  46  45  93 NW9       30.15S WCI  42
REYNOSA        CLOUDY    50  45  81 NW14      30.16R WCI  45
CD. VICTORIA   MOCLDY    61  48  63 NW7       30.11F

WESTERN MEXICO

CITY           SKY/WX    TMP DP  RH WIND       PRES   REMARKS
DEL BAJIO      MOCLDY    50  43  76 N5        30.32  WCI  48
GUADALAJARA    MOCLDY    55  50  82 CALM      30.21F
MAZATLAN       CLEAR     55  52  88 NW8       30.03F
P. VALLARTA    PTCLDY    68  66  94 N2        29.96F
ZACATECAS      CLOUDY    46  39  76 SW10      30.28F WCI  41

CENTRAL MEXICO

CITY           SKY/WX    TMP DP  RH WIND       PRES   REMARKS
MEXICO CITY    PTCLDY    55  43  62 SW3       30.32F
MORELIA        MOCLDY    46  43  87 CALM      30.25F
QUERETARO      PTCLDY    50  41  71 CALM      30.30F
S. LUIS POTOSI CLEAR     54  37  54 CALM      30.22F
TAMPICO        MOCLDY    68  63  83 N20       30.01F
TOLUCA         FOG       45  41  87 CALM      30.40F VSB 1/4

SOUTHERN MEXICO

CITY           SKY/WX    TMP DP  RH WIND       PRES   REMARKS
ACAPULCO       PTCLDY    72  68  88 NW2       29.88F

YUCATAN PENINSULA

CITY           SKY/WX    TMP DP  RH WIND       PRES   REMARKS
CAMPECHE       CLEAR     73  72  94 E6        29.94S
CANCUN         PTCLDY    77  72  83 SE8       30.03S
COZUMEL        PTCLDY    70  70 100 E5        30.02F
MERIDA         CLEAR     72  70  94 E6        29.99S
TAPACHULA      CLEAR     75  72  88 CALM      29.90F

CENTRAL AMERICA

CITY           SKY/WX    TMP DP  RH WIND       PRES   REMARKS
MANAGUA        MOSUNNY   75  72  88 E5        29.83F

CARIBBEAN

CITY           SKY/WX    TMP DP  RH WIND       PRES   REMARKS
ARUBA          PTCLDY    79  73  83 E13       29.92R
KINGSTON       PTCLDY    77  68  73 NW3       29.94F
SAN JUAN       PTCLDY    75  70  83 SE3       30.02S
SANTO DOMINGO  PTCLDY    72  70  94 NE5       30.00F
ST. CROIX      PTCLDY    70  66  88 NE3       30.01
ST. MAARTEN    PTCLDY    75  70  83 NE5       30.00R

$$



USA.gov is the U.S. government's official web portal to all federal, state and local government web resources and services.